| time (UTC) | temp F | wind direction | speed knots | gust knots | rain 1hr in | rain 24hr in | rain mn in | humidity % | barometer mb |
| 20260505074548 | 58 | 339 | 3.5 | 6.1 | 0.00 | 0.11 | 0.01 | 83 | 1015.1 |
| 20260505073044 | 58 | 297 | 1.7 | 6.1 | 0.00 | 0.11 | 0.01 | 83 | 1015.1 |
| 20260505071549 | 57 | 314 | 2.6 | 5.2 | 0.00 | 0.11 | 0.01 | 83 | 1015.0 |
| 20260505064548 | 56 | 286 | 3.5 | 5.2 | 0.00 | 0.21 | 0.01 | 85 | 1014.6 |
| 20260505063048 | 55 | 302 | 0.9 | 5.2 | 0.00 | 0.21 | 0.01 | 86 | 1014.5 |
| 20260505061610 | 55 | 300 | 2.6 | 6.1 | 0.00 | 0.21 | 0.01 | 88 | 1014.2 |
| 20260505060056 | 54 | 311 | 0.9 | 3.5 | 0.00 | 0.21 | 0.01 | 88 | 1013.9 |
| 20260505054554 | 54 | 310 | 0.0 | 4.3 | 0.00 | 0.22 | 0.01 | 89 | 1014.1 |
| 20260505053043 | 54 | 302 | 0.9 | 5.2 | 0.00 | 0.22 | 0.01 | 89 | 1014.1 |
| 20260505051550 | 54 | 302 | 1.7 | 5.2 | 0.00 | 0.22 | 0.01 | 89 | 1013.9 |
| 20260505041546 | 54 | 307 | 2.6 | 4.3 | 0.00 | 0.26 | 0.01 | 91 | 1013.4 |
| 20260505040057 | 54 | 310 | 1.7 | 3.5 | 0.00 | 0.26 | 0.01 | 92 | 1013.3 |
| 20260505034547 | 54 | 308 | 1.7 | 4.3 | 0.00 | 0.34 | 0.01 | 94 | 1013.2 |
| 20260505033054 | 54 | 301 | 1.7 | 3.5 | 0.00 | 0.34 | 0.01 | 94 | 1013.2 |
| 20260505031551 | 54 | 288 | 1.7 | 3.5 | 0.00 | 0.34 | 0.01 | 94 | 1013.1 |
| 20260505030044 | 53 | 279 | 0.0 | 1.7 | 0.00 | 0.34 | 0.01 | 94 | 1013.1 |
| 20260505024540 | 53 | 312 | 0.9 | 2.6 | 0.00 | 0.42 | 0.01 | 94 | 1013.1 |
| 20260505023041 | 54 | 297 | 0.9 | 2.6 | 0.00 | 0.42 | 0.01 | 94 | 1013.1 |
| 20260505021538 | 54 | 290 | 0.9 | 2.6 | 0.00 | 0.42 | 0.01 | 94 | 1013.1 |
| 20260505020046 | 54 | 288 | 0.0 | 3.5 | 0.00 | 0.42 | 0.01 | 94 | 1012.9 |
| 20260505014545 | 54 | 276 | 1.7 | 5.2 | 0.00 | 1.22 | 0.01 | 94 | 1013.0 |
| 20260505013050 | 54 | 316 | 0.9 | 2.6 | 0.00 | 1.22 | 0.01 | 94 | 1013.0 |
| 20260505011545 | 54 | 302 | 1.7 | 5.2 | 0.00 | 1.22 | 0.01 | 94 | 1013.3 |
| 20260505010058 | 54 | 294 | 1.7 | 4.3 | 0.00 | 1.22 | 0.01 | 93 | 1013.4 |
| 20260505004548 | 54 | 301 | 0.9 | 3.5 | 0.00 | 1.22 | 0.01 | 93 | 1013.5 |
| 20260505003048 | 54 | 306 | 1.7 | 4.3 | 0.00 | 1.22 | 0.01 | 93 | 1013.5 |
| 20260505001547 | 54 | 303 | 2.6 | 3.5 | 0.00 | 1.22 | 0.01 | 93 | 1013.6 |
| 20260505000054 | 54 | 0 | 0.9 | 2.6 | 0.00 | 1.22 | 0.01 | 93 | 1013.7 |
| 20260504234541 | 54 | 0 | 0.9 | 3.5 | 0.00 | 1.22 | 0.01 | 93 | 1013.8 |
| 20260504233048 | 53 | 285 | 0.0 | 1.7 | 0.00 | 1.22 | 0.01 | 93 | 1013.7 |
| 20260504231542 | 53 | 310 | 0.0 | 0.9 | 0.00 | 1.22 | 0.01 | 93 | 1013.7 |
| 20260504230048 | 53 | 305 | 1.7 | 3.5 | 0.01 | 1.22 | 0.01 | 93 | 1013.8 |
| 20260504224543 | 53 | 0 | 0.0 | 3.5 | 0.04 | 1.22 | 0.01 | 92 | 1013.7 |
| 20260504223040 | 53 | 297 | 0.9 | 3.5 | 0.04 | 1.22 | 0.01 | 92 | 1013.8 |
| 20260504221543 | 54 | 0 | 0.0 | 1.7 | 0.04 | 1.22 | 0.01 | 91 | 1013.8 |
| 20260504220049 | 55 | 293 | 0.9 | 4.3 | 0.03 | 1.21 | 0.00 | 89 | 1014.2 |
| 20260504214545 | 56 | 312 | 2.6 | 4.3 | 0.00 | 1.17 | 1.17 | 83 | 1014.2 |
| 20260504213059 | 56 | 326 | 1.7 | 4.3 | 0.00 | 1.17 | 1.17 | 83 | 1014.1 |
| 20260504211544 | 56 | 327 | 0.9 | 2.6 | 0.03 | 1.17 | 1.17 | 84 | 1014.1 |
| 20260504210041 | 56 | 0 | 0.0 | 1.7 | 0.06 | 1.17 | 1.17 | 85 | 1014.1 |
| 20260504204559 | 56 | 0 | 0.0 | 0.0 | 0.06 | 1.17 | 1.17 | 86 | 1014.1 |
| 20260504203042 | 57 | 0 | 0.0 | 0.0 | 0.06 | 1.17 | 1.17 | 84 | 1014.0 |
| 20260504201547 | 57 | 0 | 1.7 | 4.3 | 0.03 | 1.15 | 1.15 | 84 | 1014.1 |
| 20260504200044 | 57 | 0 | 0.0 | 0.9 | 0.00 | 1.12 | 1.12 | 83 | 1013.9 |
| 20260504194541 | 58 | 0 | 0.0 | 1.7 | 0.00 | 1.12 | 1.12 | 82 | 1013.9 |
| 20260504193059 | 58 | 0 | 0.0 | 0.9 | 0.00 | 1.12 | 1.12 | 81 | 1014.0 |
| 20260504191548 | 58 | 0 | 0.0 | 3.5 | 0.00 | 1.12 | 1.12 | 80 | 1014.0 |
| 20260504190053 | 58 | 0 | 0.0 | 2.6 | 0.00 | 1.12 | 1.12 | 82 | 1013.9 |
| 20260504184544 | 58 | 312 | 0.0 | 1.7 | 0.00 | 1.12 | 1.12 | 83 | 1013.9 |
| 20260504183055 | 58 | 0 | 0.0 | 1.7 | 0.00 | 1.12 | 1.12 | 82 | 1013.8 |
| 20260504181546 | 59 | 0 | 0.0 | 0.0 | 0.00 | 1.12 | 1.12 | 78 | 1013.7 |
| 20260504180122 | 59 | 0 | 0.0 | 0.9 | 0.00 | 1.12 | 1.12 | 76 | 1013.5 |
| 20260504174548 | 60 | 0 | 0.0 | 0.9 | 0.00 | 1.12 | 1.12 | 76 | 1013.4 |
| 20260504173046 | 60 | 288 | 0.0 | 0.9 | 0.00 | 1.12 | 1.12 | 75 | 1013.3 |
| 20260504171547 | 61 | 0 | 0.0 | 2.6 | 0.00 | 1.12 | 1.12 | 74 | 1013.3 |
| 20260504081551 | 57 | 0 | 0.9 | 4.3 | 0.00 | 1.13 | 1.12 | 95 | 1013.0 |